Regional Weather Roundup
Issued by NWS

Home | Current Version | Previous Version | Graphics & Text | Print | Product List | Glossary On
Versions: 1 2 3 4 5 6 7 8 9 10 11 12 13 14 15 16 17 18 19 20 21 22 23 24 25 26 27 28 29 30 31 32 33 34 35 36 37 38 39 40 41 42 43 44 45 46 47 48 49 50
000
ASUS43 KBIS 260420
RWRND

NORTH DAKOTA REGIONAL WEATHER ROUNDUP
NATIONAL WEATHER SERVICE BISMARCK ND
1100 PM CDT MON MAY 25 2015

NOTE: "FAIR" INDICATES FEW OR NO CLOUDS BELOW 12,000 FEET WITH NO
SIGNIFICANT WEATHER AND/OR OBSTRUCTIONS TO VISIBILITY.


NDZ001>003-009>011-017-260500-
NORTHWEST NORTH DAKOTA

CITY           SKY/WX    TMP DP  RH WIND       PRES   REMARKS
WILLISTON      PTCLDY    59  49  69 CALM      29.88S
MINOT          CLEAR     63  45  51 SW9       29.82R
MINOT AFB      CLEAR     60  48  65 W8        29.81R
$$

NDZ018>021-031>035-040>046-260500-
SOUTHWEST NORTH DAKOTA

CITY           SKY/WX    TMP DP  RH WIND       PRES   REMARKS
BISMARCK       CLEAR     60  53  77 W12       29.87R
DICKINSON      CLEAR     50  45  83 W8        29.90R
GARRISON         N/A     61  51  70 W13       29.85R
HETTINGER ARPT PTCLDY    51  48  89 CALM      29.94R
$$

NDZ004>008-012>016-024-026-027-054-260500-
NORTHEAST NORTH DAKOTA

CITY           SKY/WX    TMP DP  RH WIND       PRES   REMARKS
GRAND FORKS    CLEAR     54  48  80 S6        29.80R
GRND FRKS AFB  CLEAR     56  48  73 S8        29.80S
DEVILS LAKE    PTCLDY    63  52  67 S6        29.79S
$$

NDZ022-023-025-028>030-036>039-047>053-260500-
SOUTHEAST NORTH DAKOTA

CITY           SKY/WX    TMP DP  RH WIND       PRES   REMARKS
FARGO          CLEAR     54  51  90 W5        29.83R
JAMESTOWN      CLEAR     60  52  74 S12       29.83R
$$




USA.gov is the U.S. government's official web portal to all federal, state and local government web resources and services.